Showing default

CENTISPACE-2 S2, 68351

Orbit data source: Space-Track

CENTISPACE-2 S2, 68351 is a payload satellite owned by Centispace (CN) in LEO that was launched on Sun, 22 Mar 2026 UTC via a JIELONG-3 launch vehicle from the Yellow Sea Launch Area, China (YSLA). Payload-class satellites include a variety of spacecraft equipped with specific instruments for various scientific and technological missions. These include communications satellites like Starlink; space stations such as the ISS; scientific satellites like the Hubble; Earth observation satellites from companies like Planet Labs, Umbra, and HawkEye 360; GPS; miniature CubeSats for education and research; and military/defense satellites.

Loading next visibility...
Identifier
68351, 2026-060B
Orbit
LEO
Country
Flag of CNCN / PRC
Related business
Manufacturer
DFH Shenzhen
Mission
Operational spacecraft
Bus & Motor
WK01, Unknown motor
Mass
140 kg wet, 140 kg dry
Launch date (UTC)
2026-03-22 (3 months ago)
Launch vehicle
JIELONG-3
Launch site
Yellow Sea Launch Area, China (YSLA)
Object type
Payload
Rocket body
Debris
Shape & HBR
Unknown shape, 0.9 m
Radar Cross Section
Large (>1 m²)

Expand to show TLE details & history
Last TLE update: 1 day ago

TLE from 1 day ago
0 CENTISPACE-2 S2
1 68351U 26060B   26170.81594552  .00000415  00000-0  11518-3 0  9991
2 68351  54.9820  26.8215 0006573 301.0410  58.9939 14.63748145 13131
Epoch: 2026-06-19T19:34Z
TLE epoch observation values (Epoch: 2026-06-19T19:34:57.692Z)
Latitude
-0°
Longitude
-174.95838°
Altitude
679.771 km
Speed
7.519 km/s
True Right ascension
01h 47m 17s
True Declination
0° 00' 00"
Sunlit
Object was in daylight at epoch
Visualization orbit readout
Latitude
Unknown
Longitude
Unknown
Altitude
Unknown
Speed
Unknown
Apparent Right ascension
Unknown
Apparent Declination
Unknown
Sunlit
N/A
Visualization observer readout
Local Sidereal Time
07:21:43
Azimuth
Unknown
Elevation
Unknown
Doppler factor
Unknown
Orbital elements
Apogee altitude
685.704 km
Perigee altitude
676.424 km
Semi-major axis
7,059.201 km
Eccentricity
0.00066
Inclination
54.982°
RAAN
26.8215°
Arg. of periapsis
301.041°
True anomaly
59.05849°
Mean anomaly
58.9939°
Eccentric anomaly
59.02619°
Mean motion
3.6594 °/min
Orbital period
98.38 mins
BSTAR
0.00011518
Loading maneuver chart data...
Computing Atmospheric mass density...
Loading historical data...
Loading historical data...
Loading historical data...
Loading historical data...
Loading historical data...
Loading historical data...
Loading historical data...

Documentation

Showing up to 5 results
|